www.pogodaiklimat.ru

Погода и климат >> Архив погоды >> Россия >> Краснодарский край >> Красная Поляна


ПОГОДА в Красной Поляне

  • Прогноз погоды в Красной Поляне
  • Монитор погоды в Красной Поляне
  • Климат города

АРХИВ ПОГОДЫ в Красной Поляне

Время (UTC), дата Ветер
(напр.,м/с)
 
Видим.   Явления Облачность Т
(С)
Тd
(С)
f
(%)
Тe
(С)
Тes
(С)
Комфортность P
(гПа)
Po
(гПа)
Тmin
(С)
Tmax
(С)
R
(мм)
R24
(мм)
S
(см)
06 23.04 С 3 20 км слабый ливневой дождь 10/10 1000 м
[Cb cap]
+9.4 +7.0 85 +7 +7 1004.4 938.6
09 23.04 СВ 3 20 км {ливн. осадки} 10/10 1000 м
[Sc diur, vesp]
+11.7 +7.6 76 +10 +10 998.1 933.2
12 23.04 З 6
{13}
20 км слабый ливневой дождь 10/10 900 м
[Cb cap]
+13.1 +6.7 65 +11 +11 999.6 934.9
15 23.04 СЗ 1
{11}
4200 м гроза, ливневой дождь 10/10 600 м
[Cb cap]
+8.4 +6.4 87 +8 +8 1006.1 940.0 +16.1 18
18 23.04 З 6-16
{12}
10 км дождь {гроза, ливн. осадки} 10/0 360 м
[As op]
+4.7 +3.0 89 -1 -1 1012.4 944.9
21 23.04 З 3
{16}
17 км слабый дождь 10/0 570 м
[As op]
+3.2 +1.1 86 -1 -1 1016.4 948.3
00 24.04 З 2 20 км слабый ливневой дождь 10/10 600 м
[Cb cap]
+3.0 +1.5 90 -0 -0 1018.4 950.1
03 24.04 ЮЗ 1 18 км слабый ливневой дождь 10/10 600 м
[Cb calv]
+2.3 +2.2 99 0 0 1019.6 951.1 +2.2 17
06 24.04 ЮЗ 1 20 км слабый ливневой дождь 10/10 120 м
[Cb cap]
+3.0 +2.6 97 +1 +1 1019.9 951.5 +2.0
09 24.04 ЮЗ 1 20 км слабый ливневой дождь 10/10 60 м
[Cb cap]
+4.1 +3.5 96 +3 +3 1020.1 952.0
12 24.04 СЗ 4 9000 м слабый ливневой дождь 10/10 600 м
[Cb cap]
+4.2 +1.9 85 -0 -0 1020.4 952.3
15 24.04 штиль 0 8000 м слабый ливневой дождь 10/10 540 м
[Cb cap]
+1.5 +1.2 98 0 0 1023.4 954.4 +5.0 13
18 24.04 В 1 4000 м дымка {ливн. осадки} 10/10 60 м
[Sc]
+1.5 +1.5 100 -1 -1 1025.2 956.1
21 24.04 штиль 0 2600 м ливневой снег 10/10 240 м
[Cb cap]
+0.3 +0.3 100 -1 -1 1026.2 956.7
00 25.04 штиль 0 1400 м слабый ливневой снег 10/10 60 м
[Cb cap]
+0.2 +0.2 100 -1 -1 1026.9 957.4
03 25.04 штиль 0 3500 м слабый ливневой снег {туман} 10/10 200 м
[Cb cap]
+0.4 +0.4 100 -1 -1 1028.3 958.7 +0.1 19 6
06 25.04 В 1 19 км в посл. час ливневой снег 8/6 600 м
[Cu Sc Ci fib]
+3.2 +1.1 86 +2 +5 1030.3 961.3
09 25.04 ЮЗ 2 20 км 8/6 600 м
[Sc Ci fib]
+4.8 +0.7 75 +2 +8 1031.6 962.9
12 25.04 ЮЗ 3 20 км 8/6 1500 м
[Cu med, cong Ac As Cc]
+8.9 +0.4 55 +7 +10 1029.8 962.1
15 25.04 З 1 20 км 4/4 1000 м
[Cu med, cong]
+6.2 +1.9 74 +5 +6 1030.5 962.2 +9.3 5
18 25.04 С 2 18 км ясно +3.1 +0.8 85 0 0 1032.0 962.8
21 25.04 С 2 20 км ясно +1.6 -0.3 87 -2 -2 1031.8 962.3
00 26.04 С 2 20 км ясно +0.6 -1.2 88 -3 -3 1031.0 961.3
03 26.04 С 1 20 км ясно +0.4 -2.1 83 -2 -1 1030.7 960.9 +0.1
06 26.04 ЮЗ 1 20 км ясно +8.0 +0.2 58 +8 +18 опасность
простуды
1028.6 960.8
09 26.04 ЮЗ 2 20 км ясно +15.2 -5.2 24 +15 +32 опасность
простуды
1025.5 959.5
12 26.04 ЮЗ 2 20 км ясно +19.3 -2.3 23 +20 +31 1022.4 957.5
15 26.04 С 2 20 км ясно +12.6 +1.9 48 +12 +13 1023.2 956.8 +20.7
18 26.04 С 3 19 км ясно +8.8 +1.2 59 +7 +7 1024.9 957.5
21 26.04 С 1 20 км ясно +6.1 +1.4 72 +5 +5 1025.6 957.6
00 27.04 С 2 20 км ясно +5.2 +0.9 74 +3 +3 1025.5 957.3
03 27.04 С 1 20 км ясно +3.0 +0.4 83 +2 +2 1025.6 956.8 +2.8
06 27.04 ЮЗ 1 20 км ясно +13.0 +1.4 45 +13 +24 опасность
простуды
1022.2 956.0
09 27.04 ЮЗ 3 20 км ясно +20.0 -0.1 26 +20 +35 опасность
простуды
1019.0 954.5
12 27.04 ЮЗ 3 20 км ясно +21.1 +2.9 30 +21 +31 комфорт 1017.7 953.5
15 27.04 СЗ 2 20 км ясно +17.0 +3.0 39 +17 +19 1018.9 953.8 +21.5
18 27.04 С 2 20 км ясно +11.2 +3.2 58 +10 +10 1022.4 955.8
21 27.04 С 2 20 км н/о +8.7 +1.8 62 +7 +7 1022.6 955.4
00 28.04 В 1 20 км ясно +7.0 +2.9 75 +6 +6 1022.1 954.5
03 28.04 С 2 20 км ясно +6.7 +2.0 72 +5 +5 1022.0 954.4 +5.4
06 28.04 ЮЗ 1 20 км ясно +14.7 +2.9 45 +15 +26 опасность
простуды
1019.1 953.5
09 28.04 ЮЗ 3 20 км ясно +21.3 +2.1 28 +21 +35 комфорт 1016.8 952.7
12 28.04 ЮЗ 3 20 км ясно +22.9 +1.3 24 +22 +32 комфорт 1015.5 951.8
15 28.04 З 2 20 км ясно +19.5 +1.5 30 +20 +22 1015.8 951.4 +23.1
18 28.04 С 2 20 км ясно +13.0 +3.4 52 +13 +13 1019.0 953.0
21 28.04 С 2 7000 м ясно +10.7 +2.8 58 +10 +10 1019.6 953.0
00 29.04 С 2 6000 м ясно +9.2 +3.0 65 +8 +8 1019.1 952.2
03 29.04 С 2 14 км ясно +8.7 +2.3 64 +7 +8 1018.8 951.8 +8.2
06 29.04 ЮЗ 1 20 км ясно +17.7 +4.3 41 +19 +29 1015.4 950.7
09 29.04 ЮЗ 3 20 км ясно +23.6 +5.0 30 +23 +38 комфорт 1012.9 949.6
12 29.04 ЮЗ 4 20 км ясно +24.1 +3.4 26 +23 +31 комфорт 1012.5 949.3
15 29.04 З 1 20 км ясно +21.5 +3.2 30 +22 +23 комфорт 1012.5 948.7 +24.6
18 29.04 С 2 20 км ясно +15.3 +5.2 51 +15 +15 1015.3 950.1
21 29.04 С 2 20 км ясно +11.7 +4.7 62 +11 +11 1016.5 950.4
00 30.04 СВ 1 20 км ясно +9.5 +4.9 73 +9 +9 1016.5 949.9

 

Местоположение метеостанции Красная Поляна (Краснодарский край, Россия): широта 43.68 долгота 40.20 высота над уровнем моря 567 м.

В архиве по умолчанию представлена погода в Красной Поляне за последнюю неделю. Архивные данные за месяц целиком и за предыдущие месяцы, начиная с января 2011 года, Вы можете получить, выбрав интересующий диапазон дат из раскрывающегося списка и нажав кнопку "Ввод!".

Внимание! Время в таблицах - всемирное. Для получения местного времени необходимо прибавить поправку, которая в Красной Поляне равна 3 ч.

Смотрите также архив погоды в соседних городах и на ближайших метеорологических станциях:

Погода в Кепше (Краснодарский край, Россия) (14 км)
Погода в Гузерипле (Адыгея, Россия) (36 км)
Погода в Сочи (Краснодарский край, Россия) (36 км)
Погода в Сочи аэропорту (Адлер) (Краснодарский край, Россия) (37 км)
Погода в Псебае (Краснодарский край, Россия) (68 км)
Погода в Шунтуке (Адыгея, Россия) (88 км)
Погода в Горном (Краснодарский край, Россия) (100 км)
Погода в Туапсе (Краснодарский край, Россия) (102 км)
Погода в Майкопе (Адыгея, Россия) (105 км)
Погода в Зеленчукской (Карачаево-Черкессия, Россия) (112 км)

Пояснения к столбцам:

Ветер - указаны скорость ветра в м/с - средняя за 10 мин, порывы в срок и между сроками (в фигурных скобках) и направление, откуда дует ветер: С - северный, СВ - северо-восточный, В - восточный, ЮВ - юго-восточный, Ю - южный, ЮЗ - юго-западный, З - западный, СЗ - северо-западный.
Видимость - горизонтальная дальность видимости в метрах или километрах. При видимости от 1 до 10 км при отсутствии осадков обычно наблюдается дымка, при ухудшении видимости до 1 км и менее - туман. В сухую погоду видимость может ухудшаться дымом, пылью или мглою.
Явления - указаны атмосферные явления, наблюдавшиеся в срок или в последний час перед сроком; фигурными скобками обозначены явления, наблюдавшиеся между сроками (за 1-3 часа до срока); квадратными скобками обозначены град или гололедные отложения с указанием их диаметра в мм.
Облачность - указаны через наклонную черту общая и нижняя облачность в баллах и высота нижней границы облаков в метрах; квадратными скобками обозначены формы облаков: Ci - перистые, Cs - перисто-слоистые, Cc - перисто-кучевые, Ac - высококучевые, As - высокослоистые, Sc - слоисто-кучевые, Ns - слоисто-дождевые, Cu - кучевые, Cb - кучево-дождевые. Подробнее классификацию облаков см. в Атласе облаков (PDF).
T - Температура воздуха - температура, измеренная на высоте 2 м над землей.
Td - Температура точки росы - температура, при понижении до которой содержащийся в воздухе водяной пар достигнет насыщения.
f - Относительная влажность воздуха - влажноcть воздуха, измеренная на высоте 2 м над землей.
Te - Эффективная температура - температура, которую ощущает одетый по сезону человек в тени. Характеристика душности погоды. При расчете учитывается влияние влажности воздуха и скорости ветра на теплоощущения человека.
Tes - Эффективная температура на солнце - температура, которую ощущает человек, с поправкой на солнечный нагрев. Характеристика знойности погоды. Зависит от высоты солнца над горизонтом, облачности и скорости ветра. Ночью, в пасмурную погоду, а также при ветре 12 м/с и более поправка равна нулю.
P - Атмосферное давление - приведенное к уровню моря атмосферное давление.
Po - Атмосферное давление - измеренное на уровне метеостанции атмосферное давление.
Tmin - Минимальная температура - минимум температуры воздуха на высоте 2 м над землей.
Tmax - Максимальная температура - максимум температуры воздуха на высоте 2 м над землей.
R - Количество осадков - Количество выпавших осадков за период времени, мм. При наведении курсора мыши на число - период времени, за который выпало указанное количество осадков.
R24 - Количество осадков - Количество выпавших осадков за 24 часа, мм.
S - Снежный покров - Высота снежного покрова, см. При наведении курсора мыши на число - состояние снежного покрова и степень покрытия местности в баллах.